Flag for Liechtenstein Weather past 2 weeks in Vaduz, Liechtenstein

Now
61 °F

Refreshingly cool.


Feels Like: 61 °F
Forecast: 45 / 70 °F
Wind: 9 mph from North

Location: Vaduz


UV Index: 0 (Low)

Visibility: N/A


Pressure: 29.62 "Hg

Humidity: 56%

Dew point: 45 °F

Location of VaduzLocation

Historic Weather in Vaduz

°F

Vaduz temperature yesterday

Maximum temperature yesterday: 53 °F (at 5:00 PM)
Minimum temperature yesterday: 35 °F (at 4:00 AM)
Average temperature yesterday: 43 °F

Past Weeks' High & Low Weather Summary

 TemperatureHumidityPressure
High69 °F (Apr 11, 4:00 PM)97% (Apr 20, 3:00 AM)30.37 "Hg (Apr 20, 3:00 AM)
Low30 °F (Apr 17, 6:00 AM)25% (Apr 17, 3:00 PM)29.64 "Hg (Apr 20, 3:00 PM)
Average50 °F62%30.05 "Hg
* Reported Apr 5 5:00 PM — Apr 20 3:00 PM, Vaduz, Weather by CustomWeather, © 2014

Note: Actual official high and low records may vary slightly from our data, if they occured in-between our weather recording intervals... More about our weather records

Advertising

Historic Weather Conditions — Data for Previous 24 hours

 ConditionsComfort  
Time TempWeatherWind HumidityBarometerVisibility
3:00 PM
Apr 20
60 °FRefreshingly cool.9 mph56%29.64 "HgN/A
2:00 PM60 °FCool.7 mph60%29.65 "HgN/A
1:00 PM57 °FCool.6 mph62%29.67 "HgN/A
12:00 PM54 °FCool.6 mph64%29.69 "HgN/A
11:00 AM51 °FCool.1 mph67%29.72 "HgN/A
10:00 AM46 °FCool.No wind75%29.75 "HgN/A
9:00 AM41 °FQuite cool.2 mph88%29.77 "HgN/A
8:00 AM38 °FChilly.3 mph93%29.78 "HgN/A
7:00 AM41 °FQuite cool.3 mph85%29.76 "HgN/A
6:00 AM43 °FQuite cool.3 mph77%29.74 "HgN/A
5:00 AM45 °FFog.7 mph74%29.72 "Hg5 mi
4:00 AM42 °FQuite cool.5 mph82%29.75 "HgN/A
3:00 AM37 °FChilly.No wind97%29.78 "HgN/A
2:00 AM38 °FFog.1 mph95%29.79 "Hg5 mi
1:00 AM37 °FChilly.1 mph96%29.81 "HgN/A
12:00 AM40 °FChilly.1 mph96%29.81 "HgN/A
11:00 PM
Apr 19
41 °FFog.1 mph93%29.82 "Hg6 mi
10:00 PM40 °FChilly.No wind92%29.83 "HgN/A
9:00 PM45 °FCool.1 mph79%29.81 "HgN/A
8:00 PM47 °FScattered clouds.5 mph75%29.79 "Hg9 mi
7:00 PM51 °FCool.7 mph64%29.76 "HgN/A
6:00 PM52 °FCool.6 mph61%29.75 "HgN/A
5:00 PM53 °FFog.7 mph57%29.75 "Hg6 mi
4:00 PM53 °FCool.8 mph57%29.76 "HgN/A
Weather by CustomWeather, © 2014

See weather overview